Farmington, NM

9:49 PM MDT on August 27, 2016 (GMT -0600)
Four Corners Regional

Weather History for KFMN - February, 2013

Change the Weather History Date:

Monday, February 11, 2013

  Actual Average Record
Temperature  
Mean Temperature 28 °F -  
Max Temperature 36 °F 46 °F 61 °F (1987)
Min Temperature 19 °F 21 °F 8 °F (2006)
Degree Days  
Heating Degree Days 36    
Moisture  
Dew Point 18 °F    
Average Humidity 66    
Maximum Humidity 81    
Minimum Humidity 31    
Precipitation  
Precipitation 0.00 in - - ()
Sea Level Pressure  
Sea Level Pressure 30.04 in    
Wind  
Wind Speed 5 mph (WNW)    
Max Wind Speed 12 mph    
Max Gust Speed -    
Visibility 10 miles    
Events      
Averages and records for this station are not official NWS values.
T = Trace of Precipitation, MM = Missing Value Source: NWS Daily Summary

Daily Weather History Graph

Daily Weather History Graph

Search for Another Location

Airport or City:

Trip Planner

Search our weather history database for the weather conditions in past years. The results will help you decide how hot, cold, wet, or windy it might be!

Date:

Astronomy

Feb. 11, 2013 Rise Set
Actual Time 7:05 AM MST 5:49 PM MST
Civil Twilight 6:38 AM MST 6:16 PM MST
Nautical Twilight 6:08 AM MST 6:46 PM MST
Astronomical Twilight 5:37 AM MST 7:16 PM MST
Moon 7:35 AM MST (2/11) 7:45 PM MST (2/11)
Length of Visible Light 11h 37m
Length of Day
10h 44m
Waxing Crescent, 3% of the Moon is Illuminated
Feb 11
Waxing Crescent
Feb 17
First Quarter
Feb 25
Full
Mar 4
Last Quarter
Mar 11
New

Hourly Weather History & Observations

Time (MST) Temp. Windchill Dew Point Humidity Pressure Visibility Wind Dir Wind Speed Gust Speed Precip Events Conditions
12:53 AM 28.9 °F 23.9 °F 23.0 °F 78% 29.98 in 10.0 mi SE 4.6 mph - N/A   Overcast
1:53 AM 27.0 °F 21.6 °F 21.9 °F 81% 29.98 in 10.0 mi ESE 4.6 mph - N/A   Mostly Cloudy
2:53 AM 28.0 °F 22.8 °F 21.9 °F 78% 29.98 in 10.0 mi SSW 4.6 mph - N/A   Overcast
3:53 AM 27.0 °F 20.5 °F 19.0 °F 72% 29.98 in 10.0 mi WSW 5.8 mph - N/A   Overcast
5:42 AM 24.8 °F 17.9 °F 17.6 °F 74% 29.94 in 10.0 mi South 5.8 mph - N/A   Overcast
5:51 AM 24.8 °F 20.5 °F 17.6 °F 74% 29.94 in 10.0 mi South 3.5 mph - N/A   Overcast
5:53 AM 25.0 °F 20.7 °F 18.0 °F 75% 30.02 in 10.0 mi South 3.5 mph - N/A   Overcast
6:53 AM 24.1 °F - 17.1 °F 75% 30.03 in 10.0 mi Calm Calm - N/A   Mostly Cloudy
7:53 AM 23.0 °F 17.0 °F 18.0 °F 81% 30.05 in 10.0 mi ENE 4.6 mph - N/A   Mostly Cloudy
8:53 AM 26.1 °F - 19.9 °F 78% 30.06 in 10.0 mi Calm Calm - N/A   Mostly Cloudy
9:53 AM 28.9 °F - 19.9 °F 69% 30.06 in 10.0 mi Calm Calm - N/A   Mostly Cloudy
10:53 AM 30.0 °F 26.5 °F 19.9 °F 66% 30.07 in 10.0 mi North 3.5 mph - N/A   Mostly Cloudy
11:53 AM 32.0 °F - 19.0 °F 59% 30.04 in 10.0 mi Calm Calm - N/A   Overcast
12:53 PM 32.0 °F 27.5 °F 19.0 °F 59% 30.03 in 10.0 mi WNW 4.6 mph - N/A   Partly Cloudy
1:53 PM 34.0 °F 26.6 °F 19.0 °F 54% 30.01 in 10.0 mi NW 9.2 mph - N/A   Mostly Cloudy
2:53 PM 35.1 °F 27.9 °F 18.0 °F 50% 30.00 in 10.0 mi NW 9.2 mph - N/A   Mostly Cloudy
3:53 PM 35.1 °F 28.6 °F 17.1 °F 48% 30.01 in 10.0 mi NNW 8.1 mph - N/A   Partly Cloudy
4:53 PM 33.1 °F 24.4 °F 14.0 °F 46% 30.03 in 10.0 mi West 11.5 mph - N/A   Clear
5:53 PM 30.0 °F 22.4 °F 16.0 °F 56% 30.06 in 10.0 mi WNW 8.1 mph - N/A   Clear
6:53 PM 28.0 °F 20.8 °F 16.0 °F 61% 30.09 in 10.0 mi WNW 6.9 mph - N/A   Clear
7:53 PM 25.0 °F 20.7 °F 17.1 °F 72% 30.11 in 10.0 mi WNW 3.5 mph - N/A   Clear
8:53 PM 23.0 °F - 16.0 °F 74% 30.11 in 10.0 mi Calm Calm - N/A   Clear
9:53 PM 21.9 °F - 16.0 °F 78% 30.11 in 10.0 mi Calm Calm - N/A   Clear
10:53 PM 21.9 °F 17.2 °F 16.0 °F 78% 30.11 in 10.0 mi NNW 3.5 mph - N/A   Clear
11:53 PM 19.0 °F 13.9 °F 12.9 °F 77% 30.12 in 10.0 mi NNE 3.5 mph - N/A   Clear